This demonstration page uses our WeatherBlox Daily Observations layout. Learn more.

Left ArrowRight Arrow

41.55636, -103.73856

Hourly Observations for December 7, 2021

Temp ( °F °C ) Dew Point ( °F °C ) Humidity (%) Winds ( mph kmh ) Pressure ( in mb ) Visibility ( mi km ) Precip ( " mm )
12:58 am 00:58 Partly Cloudy 29 -1.8 12 -11.2 49 49 N 9 15 29.87 1011 10 16 0.00 0.00
1:58 am 01:58 Clear 31 -0.4 17 -8.1 56 56 N 13 20 29.93 1014 10 16 0.00 0.00
2:58 am 02:58 Clear 30 -1.1 17 -8.2 59 59 N 10 17 29.95 1014 10 16 0.00 0.00
3:58 am 03:58 Clear 25 -4.1 15 -9.2 68 68 W 5 7 29.97 1015 10 16 0.00 0.00
4:58 am 04:58 Clear 22 -5.7 17 -8.6 80 80 W 6 9 30.01 1016 10 16 0.00 0.00
5:58 am 05:58 Clear 20 -6.5 16 -9 83 83 Calm 30.02 1017 10 16 0.00 0.00
6:58 am 06:58 Mostly Cloudy 21 -6.1 17 -8.3 85 85 SW 5 7 30.03 1017 10 16 0.00 0.00
7:58 am 07:58 Mostly Cloudy 23 -4.9 18 -7.8 80 80 WNW 6 9 30.01 1016 10 16 0.00 0.00
8:58 am 08:58 Mostly Cloudy 26 -3.3 19 -7.1 75 75 WSW 5 7 30.02 1017 10 16 0.00 0.00
9:58 am 09:58 Mostly Cloudy 28 -2.2 18 -7.7 66 66 WNW 5 7 30.02 1017 10 16 0.00 0.00
10:58 am 10:58 Mostly Cloudy 35 1.5 20 -6.5 56 56 SW 6 9 29.96 1015 10 16 0.00 0.00
11:58 am 11:58 Sunny 41 5.1 19 -7.5 40 40 SSW 18 30 29.88 1012 10 16 0.00 0.00
12:58 pm 12:58 Sunny 44 6.6 18 -8 35 35 SW 18 30 29.84 1011 10 16 0.00 0.00
1:58 pm 13:58 Sunny 48 8.8 17 -8.1 30 30 SSW 14 22 29.80 1009 10 16 0.00 0.00
2:58 pm 14:58 Sunny 47 8.6 19 -7.4 32 32 NW 8 13 29.80 1009 10 16 0.00 0.00
3:58 pm 15:58 Mostly Cloudy 46 7.5 20 -6.9 36 36 NW 9 15 29.84 1011 10 16 0.00 0.00
4:58 pm 16:58 Partly Cloudy 40 4.2 20 -6.8 45 45 N 7 11 29.90 1012 10 16 0.00 0.00
5:58 pm 17:58 Mostly Cloudy 38 3.2 20 -6.9 48 48 Calm 29.93 1014 10 16 0.00 0.00
6:58 pm 18:58 Mostly Clear 31 -0.6 19 -7.1 62 62 SSW 6 9 29.98 1015 10 16 0.00 0.00
7:58 pm 19:58 Mostly Cloudy 31 -0.7 19 -7.4 61 61 SW 6 9 29.97 1015 10 16 0.00 0.00
8:58 pm 20:58 Clear 31 -0.8 19 -7.4 61 61 SW 6 9 29.97 1015 10 16 0.00 0.00
9:58 pm 21:58 Clear 29 -1.9 19 -7.3 67 67 SW 3 6 29.98 1015 10 16 0.00 0.00
10:58 pm 22:58 Clear 31 -0.4 20 -6.9 62 62 SW 6 9 29.96 1014 10 16 0.00 0.00
11:58 pm 23:58 Clear 31 -0.8 20 -6.7 65 65 WSW 8 13 29.95 1014 10 16 0.00 0.00

Powered by AerisWeather